Taylor Fork

This weather station provides wind speed, gust or max wind speed, and wind direction at 9460 ft. near Pika Point above Sunlight Basin.  

This data can be used with temperature and precipitation data from the Carrot Basin SNOTEL site. If the data below is not displayed or up to date, view data here.

This weather station was purchased by the Friends of the Avalanche Center.

Elevation
9460ft
Jump to table bottom
Date Time Temperature
deg F
RH, % Wind Speed Wind Gust Wind Direction
04/02/19 13:00 40.6 96 2 14 E - 81
04/02/19 12:00 33.6 97 2 13 NE - 29
04/02/19 11:00 30.6 97 4 10 SE - 128
04/02/19 10:00 22.6 95 5 9 SE - 139
04/02/19 09:00 21.0 94 5 8 S - 171
04/02/19 08:00 20.2 95 6 10 S - 173
04/02/19 07:00 19.8 95 6 10 S - 184
04/02/19 06:00 20.0 95 6 8 S - 184
04/02/19 05:00 20.0 95 6 8 S - 185
04/02/19 04:00 20.1 95 5 8 S - 191
04/02/19 03:00 20.3 94 4 6 SW - 234
04/02/19 02:00 19.5 94 6 9 S - 201
04/02/19 01:00 20.6 94 7 9 SW - 215
04/02/19 00:00 20.8 91 3 10 SW - 205
04/01/19 23:00 20.8 88 7 12 SW - 232
04/01/19 22:00 20.7 89 8 12 SW - 219
04/01/19 21:00 20.9 91 4 9 W - 267
04/01/19 20:00 22.0 83 5 10 SW - 215
04/01/19 19:00 21.9 86 5 12 S - 194
04/01/19 18:00 22.1 85 11 19 SW - 230
04/01/19 17:00 26.2 48 17 27 W - 264
04/01/19 16:00 25.6 47 16 30 W - 285
04/01/19 15:00 25.1 50 16 27 W - 267
04/01/19 14:00 25.4 53 15 25 W - 258
04/01/19 13:00 23.7 60 13 24 W - 279
04/01/19 12:00 22.0 69 8 16 W - 254
04/01/19 11:00 20.8 78 7 13 SW - 234
04/01/19 10:00 19.2 87 5 9 SW - 243
04/01/19 09:00 18.2 78 2 8 SW - 233
04/01/19 08:00 16.6 85 5 16 W - 275
04/01/19 07:00 16.5 76 10 26 NW - 298
04/01/19 06:00 17.3 74 13 26 NW - 307
04/01/19 05:00 16.6 74 12 21 NW - 306
04/01/19 04:00 18.0 75 13 22 NW - 310
04/01/19 03:00 17.7 77 10 20 NW - 305
04/01/19 02:00 19.2 84 6 16 NW - 314
04/01/19 01:00 19.8 93 11 21 NW - 327
04/01/19 00:00 19.8 93 10 21 NW - 310
03/31/19 23:00 20.0 94 11 15 W - 275
03/31/19 22:00 20.8 94 10 21 W - 267
03/31/19 21:00 21.2 94 9 16 W - 265
03/31/19 20:00 21.2 93 10 17 SW - 223
03/31/19 19:00 24.0 69 11 20 SW - 222
03/31/19 18:00 25.2 63 14 23 SW - 233
03/31/19 17:00 27.6 60 14 24 SW - 227
03/31/19 16:00 29.8 50 14 23 SW - 219
03/31/19 15:00 28.8 44 12 26 SW - 216
03/31/19 14:00 29.4 50 9 19 S - 185
03/31/19 13:00 29.0 58 9 16 S - 161
03/31/19 12:00 28.6 60 9 14 S - 159